Wind_Speed
31 31 31 33 34 35 38 40 43 44 47 51 55 56 56 57 59 61 62 63 63 60 58 57 56 54 53 51 49 47 46 44 42 41 39 37 36 36 35 34 34 33 32 31
29 28 28 30 32 34 38 40 40 41 44 49 54 56 56 57 58 60 61 63 63 62 60 59 57 56 55 53 50 49 47 45 43 41 39 38 38 37 36 35 34 33 32 31
26 25 26 28 31 33 34 37 38 39 41 46 51 55 55 56 58 59 60 62 64 63 61 59 58 56 55 54 52 50 48 46 44 42 41 41 40 38 37 35 34 34 33 32
23 23 25 26 29 32 33 33 35 37 39 43 47 53 54 54 56 59 60 61 63 62 61 60 59 57 56 55 53 51 49 47 45 44 43 41 39 37 36 36 35 35 34 33
20 21 23 25 26 30 31 32 33 35 37 41 44 49 52 53 54 57 58 59 60 61 61 60 60 58 56 55 54 52 50 49 47 45 43 41 40 38 37 37 36 35 35 34
20 21 22 22 24 27 29 30 32 34 36 40 40 45 48 50 50 52 55 57 58 59 60 59 59 59 57 56 56 53 52 50 48 46 44 42 40 39 38 37 37 36 35 35
19 19 20 21 23 24 28 29 29 32 36 38 38 42 43 43 45 48 52 55 56 57 58 59 59 59 58 57 56 55 53 51 49 47 46 43 41 40 39 37 37 36 35 34
17 16 17 18 19 21 24 27 29 31 33 34 36 40 38 39 42 46 49 53 56 57 58 59 59 58 58 57 57 56 53 51 49 48 46 45 43 41 39 38 38 37 35 35
17 16 17 17 19 20 21 24 25 27 28 30 33 36 36 37 40 44 47 50 54 56 57 58 59 58 58 57 56 55 54 52 50 48 46 46 44 42 40 39 38 37 36 36
18 17 16 16 18 19 21 22 24 25 26 27 28 31 32 34 35 41 46 48 50 53 56 57 58 58 58 57 56 55 54 53 51 49 46 45 44 43 41 40 39 37 36 36
17 18 16 16 17 19 21 22 24 26 27 27 28 29 29 31 34 37 42 46 47 49 52 55 57 58 57 57 57 56 55 53 52 50 48 46 44 43 42 41 39 38 36 36
17 18 17 16 17 19 21 23 25 27 29 30 29 28 28 30 33 36 39 44 46 47 49 51 53 55 56 55 55 55 54 54 52 51 50 48 46 45 43 41 40 39 38 37
18 18 18 17 17 18 21 23 26 27 29 32 32 28 26 29 32 35 37 40 45 46 48 49 51 53 54 54 54 54 54 53 52 51 50 49 47 45 44 42 41 40 39 38
18 19 19 19 19 20 20 22 24 27 28 31 32 30 26 27 31 34 36 38 42 44 46 47 49 51 52 53 52 53 53 52 52 52 51 50 48 46 45 44 43 42 42 40
18 19 19 20 19 20 21 21 24 26 27 29 30 30 27 27 29 33 36 38 41 42 44 46 48 50 52 52 52 51 51 52 52 51 51 49 47 46 46 46 44 44 43 41
19 20 20 20 20 22 21 21 22 25 27 28 29 28 26 28 28 30 34 36 38 40 42 44 46 49 51 52 52 51 51 51 52 51 50 49 47 46 46 46 45 44 43 42
19 20 20 19 19 21 20 21 23 23 24 27 29 28 28 29 30 31 31 33 35 37 41 43 44 46 48 50 51 51 50 51 52 52 51 50 48 47 46 46 45 44 44 43
17 18 19 18 18 18 18 21 23 24 24 26 28 29 30 29 29 30 30 31 33 34 38 41 43 45 46 47 48 49 50 51 52 51 50 50 49 47 46 46 45 43 43 42
17 18 18 17 18 18 18 20 22 24 25 26 28 29 31 30 29 29 30 31 32 33 36 40 42 44 45 45 46 47 49 50 50 50 50 49 49 48 47 46 45 43 42 41
18 18 19 19 19 19 17 19 21 24 24 28 29 31 32 31 30 28 30 31 32 34 36 38 40 41 43 43 44 45 47 48 48 48 48 47 47 47 45 43 43 42 41 40
19 19 19 20 21 20 19 19 21 22 23 26 28 31 32 32 31 29 30 31 32 34 36 37 38 40 40 41 43 44 44 45 45 45 45 44 44 43 43 42 41 41 41 40
20 21 21 22 23 20 21 21 22 23 24 25 28 31 32 32 31 31 31 32 33 35 36 36 37 38 40 40 41 41 42 43 43 43 43 43 42 42 41 41 40 39 39 38
22 22 23 23 22 22 23 23 23 24 25 26 28 30 32 32 31 31 32 33 33 33 35 37 37 38 39 40 41 41 42 42 42 42 41 41 41 40 39 39 39 38 37 36
23 24 24 23 22 23 25 25 24 25 26 27 29 31 31 31 31 32 32 33 33 34 35 37 38 38 38 39 41 41 41 41 40 40 39 39 39 38 38 37 36 35 34 34
23 25 24 23 23 25 25 26 26 26 26 27 29 32 31 30 30 32 33 34 35 35 35 36 37 37 37 39 41 41 41 40 39 38 37 37 36 36 35 35 34 33 31 31
21 24 25 23 23 25 25 26 27 27 28 28 30 32 32 31 30 30 32 34 36 37 37 36 37 37 37 38 40 40 40 39 38 38 37 35 35 35 33 32 31 31 30 29
Wind_Direction
276 268 260 253 250 246 241 240 237 234 232 233 232 229 224 223 222 221 220 219 219 220 220 220 220 220 221 220 221 221 221 222 224 224 225 225 226 226 227 228 230 232 234 236
275 268 260 252 247 245 241 239 237 235 233 234 232 229 225 224 223 221 220 220 218 218 218 219 220 220 220 220 221 221 222 222 224 225 225 226 226 226 227 228 229 232 234 237
274 266 256 251 244 243 242 239 238 237 235 235 235 231 226 224 224 221 220 219 218 218 217 218 218 219 220 220 220 221 222 222 223 225 225 226 226 226 227 229 230 233 235 238
274 264 257 251 245 243 240 238 238 238 238 235 234 234 226 224 223 222 219 218 218 218 217 217 218 219 220 220 221 221 222 223 223 224 225 226 227 228 229 230 232 234 236 239
275 268 258 250 247 243 239 238 238 237 238 236 233 237 227 225 223 221 220 219 218 218 218 217 218 218 219 220 221 222 222 222 223 224 224 226 227 228 228 230 232 234 236 240
272 268 259 250 245 243 238 239 239 238 239 238 232 237 232 226 223 220 220 220 219 219 218 218 218 218 219 220 221 221 222 222 223 224 224 225 227 229 230 232 234 236 238 241
268 261 255 251 247 242 239 240 241 239 239 239 234 237 233 226 223 222 221 220 219 219 219 218 218 218 219 220 220 221 222 222 223 224 224 225 228 230 232 234 236 238 240 242
277 260 254 254 248 243 239 238 239 242 242 240 237 236 231 227 223 221 220 220 219 218 218 217 217 218 219 220 220 221 222 223 223 224 224 225 228 230 232 235 237 239 241 243
284 268 260 258 253 247 241 238 239 241 241 242 239 235 231 227 224 221 220 219 218 218 217 217 217 217 218 219 220 221 222 223 223 224 225 226 228 230 233 235 238 240 242 244
283 270 259 257 252 249 244 241 238 236 237 241 240 235 230 225 225 222 220 217 216 217 217 217 217 217 218 219 220 221 221 223 224 224 225 226 228 230 233 235 237 240 242 245
279 270 259 256 253 249 241 239 238 236 236 239 241 236 230 228 224 221 219 217 215 216 217 217 218 218 218 219 220 220 221 222 223 224 225 226 227 230 233 235 237 240 242 245
275 269 261 256 252 247 239 236 236 236 236 238 241 235 231 227 222 220 218 216 215 214 214 216 217 218 218 219 220 221 221 222 223 224 226 226 227 228 231 234 238 240 243 247
277 272 265 253 249 245 240 236 237 240 240 239 241 236 228 225 222 219 216 215 215 214 213 214 216 216 217 218 219 220 221 222 223 224 225 226 227 229 231 233 236 240 243 247
279 272 266 258 252 248 243 239 238 238 239 238 237 235 229 225 222 217 213 214 214 214 214 214 215 215 216 217 219 219 219 221 222 223 225 227 228 230 232 233 235 239 243 246
276 271 266 258 254 250 247 242 239 241 240 240 236 235 228 222 220 216 214 214 214 214 214 215 215 215 215 217 218 218 219 220 221 223 225 227 228 230 231 233 235 238 241 244
276 273 266 260 255 252 249 242 240 239 238 237 234 232 227 222 219 215 213 213 212 212 213 214 213 213 215 216 218 218 219 219 220 222 224 226 227 229 231 234 236 238 240 243
280 275 269 262 256 254 248 240 239 237 235 234 233 229 225 218 216 214 212 210 210 211 211 213 213 212 214 215 217 218 219 219 220 221 223 224 227 229 230 233 236 238 240 243
282 276 270 262 257 256 246 241 241 237 235 235 232 229 224 218 217 214 210 207 208 209 209 210 212 213 213 214 216 217 218 218 219 220 222 224 225 228 230 232 234 238 240 242
282 278 272 267 259 255 248 243 240 238 236 234 232 228 224 222 217 213 210 209 209 208 208 209 210 212 213 214 215 216 217 218 219 220 221 223 225 227 229 231 233 235 238 240
282 279 273 268 264 260 249 244 242 238 236 232 230 226 224 222 218 213 211 209 210 211 209 206 206 209 212 213 215 216 217 218 218 218 220 223 226 227 228 230 232 234 236 239
279 276 271 267 264 262 253 248 242 238 233 229 227 226 225 222 219 214 210 209 210 210 209 209 209 210 211 213 214 214 214 216 216 217 218 221 224 226 228 229 231 233 235 238
276 273 270 267 263 261 256 254 246 239 233 229 225 225 224 223 222 218 213 211 209 209 210 212 211 210 211 212 212 212 212 213 214 216 217 219 221 223 226 228 230 233 235 237
277 275 271 267 264 260 258 255 248 241 235 229 224 223 223 223 222 220 216 214 210 209 211 213 211 210 210 210 210 211 210 210 212 214 215 217 219 221 224 227 229 232 233 235
273 273 272 268 262 259 256 253 249 243 237 231 225 222 222 221 222 221 218 216 214 211 211 211 211 211 210 209 208 209 209 209 211 212 214 215 218 221 223 225 226 228 232 233
274 272 271 269 262 257 255 252 248 244 239 233 228 224 221 220 221 222 221 218 216 215 212 211 211 210 210 210 208 208 209 208 209 210 211 214 216 217 219 221 223 225 228 231
275 271 270 268 264 259 255 251 247 243 238 233 228 224 222 220 220 222 223 220 216 213 212 211 211 209 209 208 208 209 207 206 206 207 209 211 212 214 216 218 221 224 228 230
Height
5545 5545 5545 5547 5548 5551 5555 5558 5563 5571 5577 5579 5584 5593 5603 5610 5617 5626 5636 5645 5655 5666 5677 5686 5694 5703 5711 5719 5726 5733 5740 5746 5752 5758 5763 5768 5773 5777 5781 5786 5789 5793 5796 5799
5536 5536 5537 5537 5538 5541 5544 5547 5553 5559 5564 5566 5572 5579 5589 5596 5604 5614 5624 5633 5644 5654 5664 5674 5683 5692 5700 5709 5717 5725 5732 5738 5745 5751 5757 5762 5766 5770 5774 5778 5782 5786 5790 5793
5528 5530 5528 5528 5530 5532 5536 5540 5545 5549 5553 5555 5560 5566 5576 5585 5593 5602 5611 5621 5632 5642 5653 5663 5673 5682 5691 5699 5708 5716 5723 5731 5737 5743 5748 5753 5758 5763 5768 5772 5776 5780 5783 5786
5520 5521 5520 5521 5523 5525 5528 5533 5535 5538 5541 5545 5550 5553 5566 5574 5581 5591 5601 5611 5621 5632 5642 5652 5662 5672 5681 5691 5699 5707 5715 5722 5729 5734 5740 5746 5752 5758 5762 5766 5770 5773 5777 5780
5514 5513 5513 5514 5516 5518 5521 5524 5527 5529 5531 5534 5540 5543 5555 5563 5571 5582 5593 5603 5613 5623 5633 5643 5652 5662 5672 5681 5689 5697 5705 5712 5720 5726 5733 5739 5745 5750 5754 5758 5762 5766 5769 5773
5508 5507 5507 5508 5510 5512 5514 5517 5519 5521 5523 5525 5533 5536 5544 5555 5566 5577 5586 5595 5604 5614 5623 5633 5643 5652 5660 5669 5678 5687 5695 5703 5710 5717 5724 5731 5737 5742 5747 5751 5755 5758 5762 5765
5504 5503 5502 5503 5504 5506 5508 5510 5512 5514 5515 5519 5526 5528 5537 5550 5559 5568 5576 5584 5594 5603 5613 5622 5631 5640 5650 5659 5668 5677 5685 5694 5702 5709 5716 5723 5728 5734 5739 5743 5747 5751 5755 5758
5498 5499 5498 5498 5499 5500 5502 5504 5507 5509 5511 5515 5519 5522 5534 5542 5549 5556 5564 5573 5581 5590 5600 5610 5621 5631 5640 5649 5659 5668 5676 5685 5693 5700 5708 5714 5720 5725 5731 5736 5740 5743 5747 5750
5493 5495 5494 5494 5494 5495 5496 5498 5501 5503 5505 5508 5511 5518 5527 5533 5539 5546 5555 5563 5571 5581 5590 5600 5611 5620 5630 5639 5649 5659 5667 5676 5684 5692 5699 5705 5711 5717 5722 5727 5731 5735 5739 5742
5488 5489 5491 5490 5490 5491 5492 5494 5496 5498 5499 5502 5507 5512 5520 5526 5532 5539 5546 5553 5562 5572 5581 5591 5600 5610 5620 5630 5639 5648 5657 5666 5674 5682 5689 5696 5702 5708 5714 5718 5723 5728 5731 5733
5484 5485 5486 5486 5486 5486 5488 5489 5490 5492 5495 5498 5501 5509 5514 5519 5525 5531 5538 5546 5554 5562 5571 5581 5591 5600 5610 5619 5628 5637 5647 5656 5664 5672 5680 5686 5693 5699 5704 5710 5715 5719 5722 5725
5480 5480 5480 5481 5481 5481 5483 5484 5486 5488 5490 5492 5495 5503 5507 5511 5516 5522 5530 5537 5545 5554 5562 5571 5581 5590 5599 5608 5618 5627 5637 5646 5654 5662 5670 5677 5683 5689 5695 5701 5706 5710 5714 5717
5476 5475 5475 5477 5479 5478 5478 5479 5480 5482 5484 5486 5489 5497 5500 5504 5509 5515 5522 5529 5537 5545 5553 5561 5570 5579 5589 5598 5608 5618 5627 5636 5645 5652 5659 5666 5673 5680 5686 5692 5697 5701 5705 5708
5470 5470 5471 5471 5471 5471 5472 5474 5475 5476 5478 5481 5484 5489 5494 5498 5503 5509 5515 5521 5529 5537 5545 5553 5562 5571 5580 5589 5598 5608 5617 5626 5634 5642 5649 5657 5664 5671 5677 5682 5687 5692 5696 5699
5465 5465 5465 5465 5465 5466 5467 5468 5470 5471 5473 5476 5479 5482 5487 5491 5496 5502 5507 5514 5521 5529 5537 5545 5553 5562 5571 5580 5589 5598 5607 5615 5624 5632 5640 5648 5655 5661 5666 5672 5677 5682 5686 5690
5460 5460 5460 5460 5460 5460 5461 5463 5464 5465 5468 5470 5473 5477 5481 5485 5489 5495 5500 5507 5514 5521 5529 5537 5545 5553 5562 5571 5580 5589 5597 5605 5613 5622 5631 5638 5644 5651 5657 5662 5668 5672 5676 5680
5455 5454 5454 5455 5455 5454 5456 5457 5458 5460 5462 5465 5467 5472 5474 5478 5483 5488 5493 5500 5507 5514 5521 5529 5537 5545 5553 5562 5570 5579 5587 5595 5603 5612 5620 5627 5634 5641 5647 5653 5658 5663 5667 5671
5451 5449 5449 5449 5450 5450 5453 5452 5453 5454 5457 5459 5461 5465 5468 5473 5477 5482 5488 5493 5500 5507 5514 5521 5529 5537 5545 5553 5561 5569 5576 5584 5593 5602 5610 5617 5624 5631 5637 5642 5648 5653 5657 5661
5445 5444 5444 5444 5443 5444 5447 5446 5447 5448 5451 5453 5456 5459 5463 5467 5471 5477 5482 5488 5493 5500 5507 5514 5521 5529 5536 5544 5551 5559 5567 5575 5583 5592 5600 5607 5614 5621 5627 5633 5638 5643 5648 5652
5440 5439 5439 5438 5438 5439 5442 5441 5440 5443 5445 5447 5449 5453 5457 5461 5467 5472 5476 5481 5487 5493 5500 5507 5514 5521 5529 5536 5543 5551 5558 5566 5574 5583 5590 5598 5605 5611 5618 5623 5629 5634 5638 5642
5435 5434 5433 5432 5431 5432 5435 5434 5435 5438 5440 5440 5443 5447 5451 5455 5461 5466 5470 5475 5481 5487 5494 5500 5507 5514 5521 5528 5535 5543 5550 5558 5566 5574 5581 5588 5595 5602 5608 5614 5619 5624 5629 5633
5428 5428 5427 5426 5426 5429 5428 5428 5429 5431 5432 5434 5437 5441 5445 5450 5454 5459 5464 5470 5476 5481 5488 5494 5501 5507 5514 5521 5528 5535 5543 5551 5558 5566 5573 5580 5587 5593 5599 5605 5610 5615 5620 5624
5421 5421 5419 5420 5422 5422 5421 5421 5422 5423 5425 5428 5431 5435 5439 5444 5448 5453 5458 5464 5469 5475 5482 5488 5494 5501 5507 5514 5522 5529 5536 5544 5551 5558 5565 5572 5579 5585 5591 5597 5602 5607 5611 5616
5415 5413 5412 5412 5413 5414 5413 5414 5415 5417 5419 5421 5424 5428 5433 5437 5442 5447 5452 5457 5463 5469 5475 5482 5488 5495 5501 5508 5515 5523 5530 5537 5544 5551 5559 5565 5572 5577 5584 5589 5594 5599 5604 5609
5407 5405 5404 5404 5405 5405 5406 5407 5408 5410 5412 5415 5418 5422 5427 5432 5436 5441 5446 5451 5457 5463 5469 5475 5482 5488 5495 5502 5509 5516 5524 5531 5538 5545 5552 5559 5565 5571 5577 5582 5588 5593 5598 5602
5399 5397 5396 5397 5397 5397 5398 5399 5400 5402 5405 5408 5412 5416 5420 5425 5430 5434 5439 5444 5450 5456 5462 5469 5475 5482 5489 5496 5504 5511 5518 5525 5532 5539 5546 5553 5559 5565 5571 5576 5582 5586 5591 5595